Weather History for LIRF - March, 2013

Change the Weather History Date:

Friday, March 1, 2013

  Actual Average Record
Temperature  
Mean Temperature 48 °F -  
Max Temperature 55 °F 60 °F - ()
Min Temperature 41 °F 42 °F - ()
Degree Days  
Heating Degree Days 17    
Moisture  
Dew Point 39 °F    
Average Humidity 69    
Maximum Humidity 93    
Minimum Humidity 51    
Precipitation  
Precipitation 0.00 in 0.08 in - ()
Sea Level Pressure  
Sea Level Pressure 29.99 in    
Wind  
Wind Speed 6 mph ()    
Max Wind Speed 12 mph    
Max Gust Speed -    
Visibility 5.0 miles    
Events      
T = Trace of Precipitation, MM = Missing Value Source: Averaged Metar Reports

Daily Weather History Graph

Daily Weather History Graph

Search for Another Location

Airport or City:

Trip Planner

Search our weather history database for the weather conditions in past years. The results will help you decide how hot, cold, wet, or windy it might be!

Date:

Astronomy

Mar. 01, 2013 Rise Set
Actual Time 6:45 AM CET 6:01 PM CET
Civil Twilight 6:18 AM CET 6:29 PM CET
Nautical Twilight 5:45 AM CET 7:01 PM CET
Astronomical Twilight 5:13 AM CET 7:33 PM CET
Moon 10:20 PM CET (3/1) 8:17 AM CET (3/1)
Length of Visible Light 12h 11m
Length of Day
11h 15m
Waning Gibbous, 85% of the Moon is Illuminated
Mar 1
Waning Gibbous
Mar 4
Last Quarter
Mar 11
New
Mar 19
First Quarter
Mar 27
Full

Hourly Weather History & Observations

Time (CET) Temp. Windchill Dew Point Humidity Pressure Visibility Wind Dir Wind Speed Gust Speed Precip Events Conditions
12:20 AM 41.0 °F 39.0 °F 39.2 °F 93% 30.12 in 4.3 mi East 3.5 mph - N/A   Unknown
12:50 AM 41.0 °F 37.1 °F 37.4 °F 87% 30.12 in 4.3 mi ENE 5.8 mph - N/A   Unknown
1:20 AM 41.0 °F 38.0 °F 37.4 °F 87% 30.12 in 4.3 mi ENE 4.6 mph - N/A   Unknown
1:50 AM 42.8 °F 40.1 °F 39.2 °F 87% 30.12 in 4.3 mi NE 4.6 mph - N/A   Unknown
2:20 AM 42.8 °F 41.1 °F 39.2 °F 87% 30.09 in 4.3 mi East 3.5 mph - N/A   Unknown
2:50 AM 42.8 °F 41.1 °F 39.2 °F 87% 30.09 in 4.3 mi ENE 3.5 mph - N/A   Unknown
3:20 AM 44.6 °F - 39.2 °F 81% 30.09 in 4.3 mi ENE 2.3 mph - N/A   Unknown
3:50 AM 44.6 °F 41.4 °F 39.2 °F 81% 30.09 in 4.3 mi NE 5.8 mph - N/A   Unknown
4:20 AM 44.6 °F 40.7 °F 39.2 °F 81% 30.06 in 4.3 mi ENE 6.9 mph - N/A   Unknown
4:50 AM 44.6 °F 40.2 °F 39.2 °F 81% 30.06 in 4.3 mi ENE 8.1 mph - N/A   Unknown
5:20 AM 44.6 °F 40.7 °F 37.4 °F 76% 30.06 in 4.3 mi ENE 6.9 mph - N/A   Unknown
5:50 AM 42.8 °F 38.6 °F 37.4 °F 81% 30.06 in - ENE 6.9 mph - N/A   Clear
6:20 AM 42.8 °F 38.6 °F 37.4 °F 81% 30.06 in - NE 6.9 mph - N/A   Clear
6:50 AM 42.8 °F 38.0 °F 37.4 °F 81% 30.04 in - NE 8.1 mph - N/A   Clear
7:20 AM 42.8 °F 38.0 °F 37.4 °F 81% 30.06 in - ENE 8.1 mph - N/A   Clear
7:50 AM 44.6 °F 40.2 °F 37.4 °F 76% 30.06 in - NE 8.1 mph - N/A   Clear
8:20 AM 46.4 °F 41.9 °F 37.4 °F 71% 30.04 in - ENE 9.2 mph - N/A   Clear
8:50 AM 46.4 °F 41.9 °F 37.4 °F 71% 30.04 in - NE 9.2 mph - N/A   Clear
9:20 AM 48.2 °F - 37.4 °F 66% 30.04 in - NE 10.4 mph - N/A   Clear
9:50 AM 50.0 °F - 37.4 °F 62% 30.04 in - ENE 10.4 mph - N/A   Clear
10:20 AM 50.0 °F - 37.4 °F 62% 30.04 in - NE 9.2 mph - N/A   Clear
10:50 AM 51.8 °F - 37.4 °F 58% 30.04 in - ENE 11.5 mph - N/A   Clear
11:20 AM 53.6 °F - 37.4 °F 54% 30.01 in - ENE 10.4 mph - N/A   Clear
11:50 AM 53.6 °F - 35.6 °F 51% 30.01 in - ENE 11.5 mph - N/A   Clear
12:20 PM 53.6 °F - 37.4 °F 54% 30.01 in - NE 8.1 mph - N/A   Clear
12:50 PM 53.6 °F - 35.6 °F 51% 30.01 in - ENE 9.2 mph - N/A   Clear
1:20 PM 53.6 °F - 37.4 °F 54% 29.98 in - ENE 9.2 mph - N/A   Clear
1:50 PM 55.4 °F - 37.4 °F 51% 29.98 in - ENE 10.4 mph - N/A   Clear
2:20 PM 55.4 °F - 39.2 °F 54% 29.95 in - ENE 10.4 mph - N/A   Clear
2:50 PM 55.4 °F - 37.4 °F 51% 29.95 in - NE 9.2 mph - N/A   Clear
3:20 PM 55.4 °F - 37.4 °F 51% 29.95 in - NE 8.1 mph - N/A   Clear
3:50 PM 55.4 °F - 39.2 °F 54% 29.92 in - ENE 5.8 mph - N/A   Clear
4:20 PM 55.4 °F - 39.2 °F 54% 29.92 in - NE 4.6 mph - N/A   Clear
4:50 PM 53.6 °F - 41.0 °F 62% 29.89 in - ENE 5.8 mph - N/A   Clear
5:20 PM 53.6 °F - 41.0 °F 62% 29.89 in - ENE 4.6 mph - N/A   Clear
5:50 PM 51.8 °F - 41.0 °F 67% 29.89 in - NE 4.6 mph - N/A   Clear
6:20 PM 50.0 °F - 39.2 °F 66% 29.89 in 5.6 mi NNE 4.6 mph - N/A   Unknown
6:50 PM 50.0 °F - 41.0 °F 71% 29.89 in 5.6 mi NNE 2.3 mph - N/A   Unknown
7:20 PM 50.0 °F - 41.0 °F 71% 29.89 in 5.6 mi North 3.5 mph - N/A   Unknown
7:50 PM 48.2 °F - 41.0 °F 76% 29.86 in 5.6 mi NE 4.6 mph - N/A   Unknown
8:20 PM 50.0 °F - 39.2 °F 66% 29.86 in 5.6 mi NE 5.8 mph - N/A   Unknown
8:50 PM 50.0 °F - 39.2 °F 66% 29.86 in 5.6 mi Variable 3.5 mph - N/A   Unknown
9:20 PM 50.0 °F - 39.2 °F 66% 29.86 in 5.6 mi Variable 2.3 mph - N/A   Unknown
9:50 PM 48.2 °F - 39.2 °F 71% 29.86 in 5.6 mi NE 3.5 mph - N/A   Unknown
10:20 PM 50.0 °F - 39.2 °F 66% 29.86 in 5.6 mi NE 6.9 mph - N/A   Unknown
10:50 PM 50.0 °F - 39.2 °F 66% 29.86 in 5.6 mi NE 6.9 mph - N/A   Unknown
11:20 PM 48.2 °F - 39.2 °F 71% 29.86 in 5.6 mi ENE 5.8 mph - N/A   Unknown
11:50 PM 48.2 °F - 39.2 °F 71% 29.86 in 5.6 mi NE 5.8 mph - N/A   Unknown